Content
SEND FEEDBACK

Daily
Averages
Monthly
Summary
Australia

DOONSIDE, NEW SOUTH WALES


Home > Oceania > Australia > New South Wales
Elevation: 164 feet     Latitude: 33 46S     Longitude: 150 55E

WEATHER
 
SELECT A DAY
Number of Records: 233,415;   Date Range: 2/21/97 - 9/30/14
 
SHARE

PRINT THIS DATA

[ ← Previous Day ]
WEATHER ALMANAC - JANUARY 23, 2013
[ Next Day → ]
[ °C ]   °F
Weather ElementAverageHighLow
Temperature73.2 °F80.6 °F (3:00 pm)69.8 °F (3:13 am)
Dewpoint62.7 °F66.2 °F (12:30 am)60.8 °F (1:30 pm)
Humidity70.5 %83 % (12:30 am)51 % (3:00 pm)
Barometer29.96 in30.06 in (9:30 pm)29.86 in (12:30 am)
Wind Speed8 mph17.3 mph (3:30 pm)
Weather ElementAverage
Visibility6.2 mi
Wind DirectionSSE (153.3 °)

Weather ElementTotal
Precipitation---
Cooling Degree Days10.2 (Base 65)
Growing Degree Days25.2 (Base 50)
Averaged from 51 records on January 23, 2013
WEATHER CONDITIONS BREAKOUT
WIND DIRECTION BREAKOUT
WEATHER BY HOUR - JANUARY 23, 2013
[ °C ]   °F
Local TimeTemperatureDewpointHumidityBarometerVisibilityWind DirectionWind SpeedGust SpeedPrecipitationEventsConditions
12:30 AM71.6 °F66.2 °F83 %29.86 in6.2 miSSE (160°)9.2 mph
1:00 AM71.6 °F66.2 °F83 %29.89 in6.2 miSouth (180°)5.8 mph
1:22 AM71.6 °F66.2 °F83 %29.89 in6.2 miSouth (170°)6.9 mphMostly Cloudy
1:30 AM71.6 °F66.2 °F83 %29.89 in6.2 miSouth (170°)4.6 mphMostly Cloudy
1:55 AM71.6 °F66.2 °F83 %29.89 in6.2 miSSE (160°)8.1 mphOvercast
2:00 AM71.6 °F66.2 °F83 %29.89 in6.2 miSSE (160°)8.1 mphOvercast
2:22 AM71.6 °F66.2 °F83 %29.89 in6.2 miSouth (180°)5.8 mphOvercast
2:30 AM71.6 °F64.4 °F78 %29.89 in6.2 miSouth (180°)5.8 mphOvercast
3:00 AM71.6 °F64.4 °F78 %29.89 in6.2 miSouth (170°)6.9 mphOvercast
3:13 AM69.8 °F64.4 °F83 %29.89 in6.2 miSouth (180°)5.8 mphOvercast
4:00 AM69.8 °F64.4 °F83 %29.89 in6.2 miSSE (150°)8.1 mphOvercast
4:30 AM69.8 °F64.4 °F83 %29.89 in6.2 miSSE (160°)6.9 mphOvercast
4:58 AM69.8 °F62.6 °F78 %29.92 in6.2 miSouth (180°)4.6 mphOvercast
5:00 AM69.8 °F64.4 °F83 %29.92 in6.2 miSouth (190°)4.6 mphOvercast
5:30 AM69.8 °F64.4 °F83 %29.92 in6.2 miCalmOvercast
6:00 AM69.8 °F62.6 °F78 %29.92 in6.2 miCalmOvercast
6:30 AM69.8 °F64.4 °F83 %29.92 in6.2 miCalmOvercast
7:00 AM69.8 °F62.6 °F78 %29.95 in6.2 miSW (220°)2.3 mphOvercast
7:30 AM69.8 °F64.4 °F83 %29.98 in6.2 miSSW (200°)2.3 mphOvercast
8:00 AM71.6 °F62.6 °F73 %29.98 in6.2 miSouth (180°)5.8 mphOvercast
8:30 AM71.6 °F62.6 °F73 %29.98 in6.2 miSouth (170°)6.9 mphOvercast
9:00 AM71.6 °F62.6 °F73 %29.98 in6.2 miSSE (160°)9.2 mphOvercast
9:30 AM71.6 °F62.6 °F73 %29.98 inSSE (160°)5.8 mphOvercast
10:00 AM71.6 °F62.6 °F73 %30.01 inSSE (150°)8.1 mphOvercast
10:30 AM75.2 °F62.6 °F65 %30.01 inSouth (190°)11.5 mphOvercast
11:00 AM75.2 °F62.6 °F65 %30.01 in6.2 miSW (220°)4.6 mphOvercast
11:30 AM75.2 °F62.6 °F65 %30.01 in6.2 miSSW (210°)6.9 mphOvercast
12:00 PM75.2 °F62.6 °F65 %30.01 in6.2 miSouth (170°)6.9 mphOvercast
12:30 PM75.2 °F62.6 °F65 %29.98 in6.2 miSE (130°)6.9 mphOvercast
1:00 PM77.0 °F62.6 °F61 %29.98 in6.2 miSE (140°)9.2 mphOvercast
1:30 PM78.8 °F60.8 °F54 %29.98 in6.2 miSSE (150°)10.4 mphOvercast
2:00 PM78.8 °F60.8 °F54 %29.98 in6.2 miESE (110°)10.4 mphOvercast
2:30 PM78.8 °F60.8 °F54 %29.98 in6.2 miESE (120°)12.7 mphOvercast
3:00 PM80.6 °F60.8 °F51 %29.95 in6.2 miESE (110°)12.7 mphOvercast
3:30 PM78.8 °F60.8 °F54 %29.95 in6.2 miESE (120°)17.3 mphOvercast
4:00 PM78.8 °F60.8 °F54 %29.95 in6.2 miESE (120°)16.1 mphOvercast
4:30 PM78.8 °F60.8 °F54 %29.95 in6.2 miSE (130°)13.8 mphOvercast
5:00 PM78.8 °F60.8 °F54 %29.95 in6.2 miSE (140°)11.5 mphOvercast
5:30 PM77.0 °F60.8 °F57 %29.95 in6.2 miSE (140°)13.8 mphOvercast
6:00 PM75.2 °F60.8 °F61 %29.98 in6.2 miSSE (160°)12.7 mphOvercast
6:30 PM75.2 °F60.8 °F61 %29.98 in6.2 miSSE (160°)11.5 mphOvercast
7:00 PM73.4 °F60.8 °F65 %30.01 in6.2 miSSE (150°)12.7 mphOvercast
7:30 PM73.4 °F60.8 °F65 %30.01 in6.2 miSSE (150°)10.4 mphOvercast
8:00 PM71.6 °F60.8 °F69 %30.04 in6.2 miSSE (150°)11.5 mphOvercast
8:30 PM71.6 °F60.8 °F69 %30.04 in6.2 miSSE (160°)8.1 mphOvercast
9:00 PM71.6 °F60.8 °F69 %30.04 in6.2 miSSE (160°)8.1 mphOvercast
9:30 PM71.6 °F60.8 °F69 %30.06 in6.2 miSouth (170°)9.2 mphOvercast
10:00 PM71.6 °F60.8 °F69 %30.06 in6.2 miSSE (160°)6.9 mphOvercast
10:30 PM71.6 °F60.8 °F69 %30.06 in6.2 miSouth (190°)4.6 mphOvercast
11:00 PM71.6 °F60.8 °F69 %30.04 in6.2 miSouth (190°)5.8 mphOvercast
11:30 PM71.6 °F60.8 °F69 %30.04 in6.2 miSouth (190°)8.1 mphOvercast
Hourly data recorded from YSRI, located miles away from Doonside, New South Wales







STORIES FROM OUR PARTNERS